Bennington, VT

2:24 AM EDT on April 24, 2017 (GMT -0400)
Morse State

Weather History for KDDH - November, 2011

Change the Weather History Date:

Wednesday, November 23, 2011

  Actual Average Record
Temperature  
Mean Temperature 38 °F 36 °F  
Max Temperature 39 °F 45 °F 63 °F (1999)
Min Temperature 3 °F 28 °F 3 °F (2011)
Degree Days  
Heating Degree Days 27 29  
Month to date heating degree days 582  
Since 1 July heating degree days 1403  
Cooling Degree Days 0 0  
Month to date cooling degree days 0  
Year to date cooling degree days 313  
Moisture  
Dew Point 34 °F    
Average Humidity 84    
Maximum Humidity 87    
Minimum Humidity 81    
Precipitation  
Precipitation 0.60 in 0.10 in 0.60 in (2011)
Month to date precipitation 2.36  
Year to date precipitation 37.16  
Sea Level Pressure  
Sea Level Pressure 29.85 in    
Wind  
Wind Speed 10 mph (North)    
Max Wind Speed 23 mph    
Max Gust Speed 38 mph    
Visibility 8 miles    
Events Rain , Snow    
T = Trace of Precipitation, MM = Missing Value Source: NWS Daily Summary

Daily Weather History Graph

Daily Weather History Graph

Search for Another Location

Airport or City:

Trip Planner

Search our weather history database for the weather conditions in past years. The results will help you decide how hot, cold, wet, or windy it might be!

Date:

Astronomy

Nov. 23, 2011 Rise Set
Actual Time 6:54 AM EST 4:23 PM EST
Civil Twilight 6:23 AM EST 4:54 PM EST
Nautical Twilight 5:48 AM EST 5:29 PM EST
Astronomical Twilight 5:14 AM EST 6:03 PM EST
Moon 4:54 AM EST (11/23) 3:03 PM EST (11/23)
Length of Visible Light 10h 31m
Length of Day
9h 29m
Waning Crescent, 4% of the Moon is Illuminated
Nov 23
Waning Crescent
Nov 25
New
Dec 2
First Quarter
Dec 10
Full
Dec 17
Last Quarter

Hourly Weather History & Observations

Time (EST) Temp. Windchill Dew Point Humidity Pressure Visibility Wind Dir Wind Speed Gust Speed Precip Events Conditions
12:11 AM 37.4 °F 30.8 °F 33.8 °F 87% 30.06 in 5.0 mi ESE 9.2 mph - 0.02 in Rain Light Rain
12:54 AM 37.0 °F 27.7 °F 33.1 °F 86% 30.03 in 4.0 mi ESE 16.1 mph 24.2 mph 0.06 in Rain Light Rain
1:54 AM 37.9 °F 31.5 °F 34.0 °F 86% 29.95 in 6.0 mi SE 9.2 mph 17.3 mph 0.11 in Rain Light Rain
2:02 AM 37.4 °F 29.3 °F 33.8 °F 87% 29.93 in 6.0 mi SE 12.7 mph 19.6 mph 0.01 in Rain Light Rain
2:38 AM 39.2 °F 32.0 °F 33.8 °F 81% 29.89 in 5.0 mi ESE 11.5 mph 20.7 mph 0.08 in Rain Rain
2:54 AM 39.0 °F 30.6 °F 34.0 °F 82% 29.89 in 6.0 mi East 15.0 mph 29.9 mph 0.10 in Rain Light Rain
3:54 AM 39.0 °F 29.0 °F 34.0 °F 82% 29.82 in 4.0 mi ESE 20.7 mph 33.4 mph 0.12 in Rain Rain
4:54 AM 3.0 °F -19.3 °F - N/A% 29.80 in 5.0 mi ESE 23.0 mph 38.0 mph 0.17 in Snow Blowing Snow
7:54 AM - - - N/A% 29.70 in 10.0 mi SSE 10.4 mph 21.9 mph N/A   Overcast
8:54 AM - - - N/A% 29.68 in 10.0 mi East 8.1 mph 16.1 mph 0.01 in   Overcast
9:54 AM - - - N/A% 29.67 in 10.0 mi Variable 3.5 mph - 0.00 in   Overcast
10:38 AM - - - N/A% 29.68 in 4.0 mi NNW 3.5 mph - 0.01 in   Overcast
10:54 AM - - - N/A% 29.68 in 3.0 mi Variable 3.5 mph - 0.02 in   Overcast
11:54 AM - - - N/A% 29.67 in 10.0 mi North 5.8 mph - 0.00 in   Overcast
12:54 PM - - - N/A% 29.67 in 10.0 mi NNE 9.2 mph - N/A   Overcast
1:54 PM - - - N/A% 29.72 in 10.0 mi North 6.9 mph - 0.00 in   Overcast
2:16 PM - - - N/A% 29.73 in 2.5 mi North 8.1 mph - 0.00 in   Overcast
2:37 PM - - - N/A% 29.74 in 4.0 mi North 4.6 mph - 0.01 in   Overcast
2:54 PM - - - N/A% 29.75 in 6.0 mi North 5.8 mph - 0.01 in   Overcast
3:08 PM - - - N/A% 29.76 in 10.0 mi North 9.2 mph - 0.00 in   Overcast
3:17 PM - - - N/A% 29.77 in 10.0 mi North 8.1 mph - 0.00 in   Overcast
3:54 PM - - - N/A% 29.80 in 10.0 mi North 4.6 mph - 0.00 in   Overcast
4:09 PM - - - N/A% 29.81 in 10.0 mi NNW 3.5 mph - N/A   Overcast
4:54 PM - - - N/A% 29.83 in 10.0 mi Calm Calm - N/A   Overcast
5:20 PM - - - N/A% 29.84 in 10.0 mi WNW 3.5 mph - N/A   Overcast
5:54 PM - - - N/A% 29.87 in 10.0 mi NW 6.9 mph - N/A   Overcast
6:54 PM - - - N/A% 29.90 in 10.0 mi NW 4.6 mph - N/A   Overcast
7:54 PM - - - N/A% 29.94 in 8.0 mi NW 10.4 mph - N/A   Overcast
8:42 PM - - - N/A% 29.96 in 10.0 mi NNW 9.2 mph 18.4 mph N/A   Mostly Cloudy
8:54 PM - - - N/A% 29.97 in 10.0 mi NW 9.2 mph - N/A   Overcast
9:28 PM - - - N/A% 29.98 in 10.0 mi NW 8.1 mph 16.1 mph N/A   Overcast
10:19 PM - - - N/A% 29.98 in 10.0 mi NNW 8.1 mph - N/A   Overcast
10:54 PM - - - N/A% 29.98 in 10.0 mi NNW 8.1 mph 17.3 mph N/A   Overcast
11:11 PM - - - N/A% 29.99 in 10.0 mi NW 6.9 mph - N/A   Overcast
11:51 PM - - - N/A% 30.02 in 10.0 mi NNW 5.8 mph - N/A   Overcast
11:54 PM - - - N/A% 30.02 in 10.0 mi Variable 5.8 mph - N/A   Overcast